Starlink 1219

decayed
NORAD ID: 45210 Int'l Des: 2020-012 Owner: SPXS Country: US Constellation: starlink
LEOCIRCULAR
Gruppe

Über Starlink 1219

Beschreibung wird geladen...

Höhenverlauf

Altitude vs Time

uPlot chart will show altitude changes over time

Zweizeiliger Elementsatz

1 45210U 20012AJ 25247.40880323 .11844454 12543-4 28818-3 0 9995
2 45210 53.0231 62.2512 0005274 280.9083 79.1372 16.45877610308054
Epoch: 4. Sept. 2025 • Age: 2409 hours

Aktueller Status

Position data unavailable
Startdatum 17. Feb. 2020
Alter 5.8 years
Verglühungsdatum 4. Sept. 2025
Typ internet

Technische Details

Klassifizierung Payload
Masse 260.00 kg
Trockenmasse 248.00 kg
Gesamtmasse 260.00 kg
Länge 0.20 m
Durchmesser 2.80 m
Spannweite 9.00 m
Form Box + pan
Hersteller SPXS
Bus-Typ Starlink
Phasenstatus Reentered
Besitzer/Staat SPXS/US

Große Konstellationen

Loading constellations...